Location: Bluff Heights
(33.7692°N, 118.1592°W)
Time: 02:22:43
(UTC+00:00)

AO-73 - Pass Details

Date: 30 September 2021
Orbit: 580 x 662 km, 97.6° (Epoch: 23 October)

Event Time Altitude Azimuth Distance (km) Brightness Sun altitude
Rises 13:09:51 0° 358° (N) 2,831 ? -8.5°
Reaches altitude 10° 13:12:16 10° 346° (NNW) 1,917 ? -8.0°
Maximum altitude 13:15:45 27° 289° (WNW) 1,141 ? -7.2°
Drops below altitude 10° 13:19:12 10° 231° (SW) 1,890 ? -6.5°
Sets 13:21:35 0° 219° (SW) 2,783 ? -6.0°
